This is the latest recevied weather packets stored in our database for station/object IN3APK-3. If no packets are shown the sender has not sent any weather packets the latest 10 day(s).
| Time | Temp. | Humidity | Pressure | Rain* | Wind** | Luminosity | Snow |
|---|---|---|---|---|---|---|---|
| 1777828501 | 20° C | 30% | 1010.5 hPa | - | - | - | - |
| 1777827849 | 20.56° C | 30% | 1010.5 hPa | - | - | - | - |
| 1777827197 | 21.11° C | 29% | 1010.4 hPa | - | - | - | - |
| 1777826545 | 21.11° C | 29% | 1010.3 hPa | - | - | - | - |
| 1777825893 | 21.67° C | 29% | 1010.3 hPa | - | - | - | - |
| 1777825242 | 22.22° C | 28% | 1010.2 hPa | - | - | - | - |
| 1777824590 | 22.78° C | 28% | 1010.3 hPa | - | - | - | - |
| 1777823939 | 23.89° C | 27% | 1010.3 hPa | - | - | - | - |
| 1777822637 | 27.22° C | 26% | 1010 hPa | - | - | - | - |
| 1777821986 | 28.33° C | 26% | 1010.1 hPa | - | - | - | - |
| 1777821335 | 29.44° C | 26% | 1010.2 hPa | - | - | - | - |
| 1777820680 | 26.67° C | 27% | 1010.3 hPa | - | - | - | - |
| 1777820027 | 23.89° C | 28% | 1010.5 hPa | - | - | - | - |
| 1777819373 | 21.67° C | 29% | 1010.5 hPa | - | - | - | - |
| 1777818721 | 21.67° C | 29% | 1010.6 hPa | - | - | - | - |
| 1777818069 | 21.67° C | 28% | 1010.6 hPa | - | - | - | - |
| 1777817418 | 22.78° C | 28% | 1010.6 hPa | - | - | - | - |
| 1777816767 | 23.89° C | 27% | 1010.4 hPa | - | - | - | - |
| 1777816116 | 25° C | 26% | 1010.4 hPa | - | - | - | - |
| 1777815466 | 27.22° C | 25% | 1010.4 hPa | - | - | - | - |
| 1777814815 | 28.89° C | 26% | 1010.6 hPa | - | - | - | - |
| 1777814162 | 28.33° C | 27% | 1010.6 hPa | - | - | - | - |
| 1777813510 | 28.33° C | 28% | 1010.8 hPa | - | - | - | - |
| 1777812857 | 28.33° C | 29% | 1011 hPa | - | - | - | - |
| 1777811553 | 27.78° C | 30% | 1011.3 hPa | - | - | - | - |
* Rain since midnight (hover to see other rain measurements)
** Current wind speed in m/s (hover to see current wind gust speed)